THORAD AGENA D DEB, 42552

Orbit data source: Space-Track

THORAD AGENA D DEB, 42552 is space debris in SSO originally from a launch on Wed, 08 Apr 1970 UTC launched from the Air Force Western Test Range (AFWTR). Debris objects in space refer to the collection of defunct objects orbiting the Earth. Examples of debris include non-operational satellites, rocket bodies, and fragments generated from explosions, collisions, or faulty payload assembly.

Loading next visibility...
Identifier
42552, 1970-025TJ
Orbit
SSO
Country
Flag of USUS
Related business
Manufacturer
Unknown
Mission
Spacecraft
Bus & Motor
Unknown
Mass
Unknown
Launch date (UTC)
1970-04-08 (56 years ago)
Launch vehicle
Unknown
Launch site
Air Force Western Test Range (AFWTR)
Object type
Payload
Rocket body
Debris
Shape & HBR
Unknown shape, 0.1 m
Radar Cross Section
Small (<0.1 m²)

Expand to show TLE details & history
Last TLE update: 2 days ago

TLE from 2 days ago
0 THORAD AGENA D DEB
1 42552U 70025TJ  26168.08522675  .00000730  00000-0  12252-2 0  9994
2 42552  99.3901 104.4715 0171492 272.1183  86.0320 13.43776932613779
Epoch: 2026-06-17T02:02Z
TLE epoch observation values (Epoch: 2026-06-17T02:02:43.591Z)
Latitude
-0.00002°
Longitude
168.4419°
Altitude
1,091.352 km
Speed
7.31 km/s
True Right ascension
06h 57m 53s
True Declination
0° 00' 00"
Sunlit
Object was in daylight at epoch
Visualization orbit readout
Latitude
Unknown
Longitude
Unknown
Altitude
Unknown
Speed
Unknown
Apparent Right ascension
Unknown
Apparent Declination
Unknown
Sunlit
N/A
Visualization observer readout
Local Sidereal Time
08:51:17
Azimuth
Unknown
Elevation
Unknown
Doppler factor
Unknown
Orbital elements
Apogee altitude
1,220.652 km
Perigee altitude
964.42 km
Semi-major axis
7,470.673 km
Eccentricity
0.01715
Inclination
99.3901°
RAAN
104.4715°
Arg. of periapsis
272.1183°
True anomaly
87.99497°
Mean anomaly
86.032°
Eccentric anomaly
87.01324°
Mean motion
3.36127 °/min
Orbital period
107.1 mins
BSTAR
0.0012252
Loading maneuver chart data...
Computing Atmospheric mass density...

Documentation

Showing up to 5 results
|